Weather in Honolulu

United States     21°20′15″N   157°55′07″W
temp.,
°C
wind,
m/s
gust,
m/s
humid.,
%
clouds,
%
prec.,
mm/h
press.,
hPa
HPBL,
m
23 may, mon
mon2323:00+24ene910750 0.1 1021786
02:00+24ene89736 0.1 1019779
05:00+23ene78705 0.0 1019714
08:00+24e666617 0.0 10201152
11:00+25ese44600 0.0 1020942
14:00+25sse53610 0.0 1019756
17:00+25e65686 0.1 1018914
20:00+24ene77731 0.1 1019672
24 may, tue
tue2423:00+24ene67731 0.1 1019635
02:00+24ene56730 0.1 1018551
05:00+23ene56701 0.0 1017528
08:00+24ene56690 0.0 1019728
11:00+25e76591 0.0 10181140
14:00+26e88551 0.0 1016966
17:00+26ene66621 0.0 1015864
20:00+24ene88660 0.0 1017908
25 may, wed
wed2523:00+24ene78690 0.0 10181090
02:00+23ene677411 0.1 1016954
05:00+23ene78710 0.2 1016911
08:00+24ene78650 0.3 10171190
11:00+25ene99633 0.0 10171300
14:00+25e109633 0.1 10161233
17:00+25ene88600 0.0 1015902
20:00+24ene88600 0.0 10161019
26 may, thu
thu2623:00+24ene89650 0.0 10171181
02:00+23ene89710 0.0 10151063
05:00+23ene897513 0.3 1015908
08:00+24ene99650 0.4 10171249
11:00+24e88580 0.0 10161292
14:00+25e109630 0.0 10151173
17:00+25ene98530 0.0 1015945
20:00+24ene88670 0.0 1016948
27 may, fri
fri2723:00+24ene78682 0.0 10171175
02:00+24ene786599 0.0 10151330
05:00+23ene676492 0.0 10161114
08:00+24e67666 0.0 10171066
11:00+25e4564100 0.1 1017924
14:00+26e766253 0.1 10161063
17:00+26ene876713 0.0 1015891
20:00+24ene10107199 0.0 1017907